Вернуться в каталог

DELTA 1 DEB

АктивенLEO
NORAD 13524·DEBRIS·🇺🇸 United States

Запущен Nov 6, 1973 с Vandenberg Space Force Base

Loading…

Ближайшие Пролёты (ближайшие 24 часа)

TLE

СвежийSource: Space-Track

Эпоха: Sep 14, 2026, 12:58 UTC

1 13524U 73086GM  26257.54085880  .00000048  00000-0  66203-3 0  9991
2 13524 102.8713 272.9885 0042039 247.6394 265.2885 12.48413067 87886

Отслеживайте DELTA 1 DEB в реальном времени с AllMySat

Download on the App Store